Time,TemperatureF,DewpointF,PressureIn,WindDirection,WindDirectionDegrees,WindSpeedMPH,WindSpeedGustMPH,Humidity,HourlyPrecipIn,Conditions,Clouds,dailyrainin,SoftwareType,DateUTC
2013-10-08 00:05:00,77.2,53.0,29.81,SW,214,7.0,9.0,43,0.00,,,0.00,weatherlink.com 1.10,2013-10-08 04:05:00,
2013-10-08 00:20:00,77.1,54.0,29.80,SW,226,6.0,10.0,45,0.00,,,0.00,weatherlink.com 1.10,2013-10-08 04:20:00,
2013-10-08 00:35:00,77.1,53.0,29.80,SW,225,9.0,11.0,44,0.00,,,0.00,weatherlink.com 1.10,2013-10-08 04:35:00,
2013-10-08 00:50:00,77.2,52.0,29.79,WSW,242,6.0,10.0,41,0.00,,,0.00,weatherlink.com 1.10,2013-10-08 04:50:00,
2013-10-08 01:06:00,77.4,52.0,29.79,WSW,246,8.0,10.0,42,0.00,,,0.00,weatherlink.com 1.10,2013-10-08 05:06:00,
2013-10-08 01:21:00,77.5,54.0,29.79,West,279,2.0,9.0,44,0.00,,,0.00,weatherlink.com 1.10,2013-10-08 05:21:00,
2013-10-08 01:36:00,76.9,53.0,29.79,West,277,0.0,7.0,44,0.00,,,0.00,weatherlink.com 1.10,2013-10-08 05:36:00,
2013-10-08 01:51:00,76.6,52.0,29.79,WNW,288,0.0,0.0,43,0.00,,,0.00,weatherlink.com 1.10,2013-10-08 05:51:00,
2013-10-08 02:06:00,76.3,51.0,29.79,North,5,0.0,0.0,41,0.00,,,0.00,weatherlink.com 1.10,2013-10-08 06:06:00,
2013-10-08 02:21:00,75.9,50.0,29.80,WNW,300,0.0,0.0,41,0.00,,,0.00,weatherlink.com 1.10,2013-10-08 06:21:00,
2013-10-08 02:36:00,75.6,49.0,29.79,NNW,338,0.0,0.0,39,0.00,,,0.00,weatherlink.com 1.10,2013-10-08 06:36:00,
2013-10-08 02:51:00,75.2,48.0,29.80,West,265,0.0,0.0,39,0.00,,,0.00,weatherlink.com 1.10,2013-10-08 06:51:00,
2013-10-08 03:06:00,74.7,47.0,29.80,WNW,288,0.0,0.0,37,0.00,,,0.00,weatherlink.com 1.10,2013-10-08 07:06:00,
2013-10-08 03:21:00,74.5,46.0,29.80,West,265,3.0,4.0,37,0.00,,,0.00,weatherlink.com 1.10,2013-10-08 07:21:00,
2013-10-08 03:36:00,74.1,46.0,29.80,NW,314,0.0,5.0,37,0.00,,,0.00,weatherlink.com 1.10,2013-10-08 07:36:00,
2013-10-08 03:51:00,73.9,46.0,29.81,West,280,1.0,6.0,37,0.00,,,0.00,weatherlink.com 1.10,2013-10-08 07:51:00,
2013-10-08 04:06:00,73.9,46.0,29.81,WNW,298,0.0,0.0,37,0.00,,,0.00,weatherlink.com 1.10,2013-10-08 08:06:00,
2013-10-08 04:21:00,73.9,46.0,29.81,West,268,0.0,3.0,37,0.00,,,0.00,weatherlink.com 1.10,2013-10-08 08:21:00,
2013-10-08 04:36:00,74.0,45.0,29.82,NNW,346,0.0,3.0,36,0.00,,,0.00,weatherlink.com 1.10,2013-10-08 08:36:00,
2013-10-08 04:51:00,74.0,46.0,29.81,WNW,294,0.0,0.0,37,0.00,,,0.00,weatherlink.com 1.10,2013-10-08 08:51:00,
2013-10-08 05:06:00,74.1,45.0,29.81,West,275,0.0,0.0,36,0.00,,,0.00,weatherlink.com 1.10,2013-10-08 09:06:00,
2013-10-08 05:21:00,74.1,45.0,29.82,West,277,0.0,0.0,36,0.00,,,0.00,weatherlink.com 1.10,2013-10-08 09:21:00,
2013-10-08 05:36:00,74.1,45.0,29.81,NW,313,0.0,1.0,36,0.00,,,0.00,weatherlink.com 1.10,2013-10-08 09:36:00,
2013-10-08 05:51:00,74.0,45.0,29.82,WNW,283,0.0,0.0,36,0.00,,,0.00,weatherlink.com 1.10,2013-10-08 09:51:00,
2013-10-08 06:06:00,74.2,45.0,29.82,West,279,4.0,6.0,36,0.00,,,0.00,weatherlink.com 1.10,2013-10-08 10:06:00,
2013-10-08 06:21:00,74.4,46.0,29.83,WNW,291,0.0,5.0,36,0.00,,,0.00,weatherlink.com 1.10,2013-10-08 10:21:00,
2013-10-08 06:36:00,74.3,46.0,29.83,WNW,284,0.0,0.0,36,0.00,,,0.00,weatherlink.com 1.10,2013-10-08 10:36:00,
2013-10-08 06:51:00,74.3,46.0,29.83,WNW,284,0.0,0.0,36,0.00,,,0.00,weatherlink.com 1.10,2013-10-08 10:51:00,
2013-10-08 07:06:00,74.4,46.0,29.84,WNW,284,0.0,0.0,36,0.00,,,0.00,weatherlink.com 1.10,2013-10-08 11:06:00,
2013-10-08 07:21:00,74.1,47.0,29.84,NNW,342,0.0,0.0,38,0.00,,,0.00,weatherlink.com 1.10,2013-10-08 11:21:00,
2013-10-08 07:36:00,74.0,47.0,29.84,North,5,0.0,0.0,38,0.00,,,0.00,weatherlink.com 1.10,2013-10-08 11:36:00,
2013-10-08 07:51:00,74.1,47.0,29.85,North,360,0.0,0.0,38,0.00,,,0.00,weatherlink.com 1.10,2013-10-08 11:51:00,
2013-10-08 08:06:00,74.4,47.0,29.86,WSW,248,0.0,0.0,38,0.00,,,0.00,weatherlink.com 1.10,2013-10-08 12:06:00,
2013-10-08 08:21:00,74.5,49.0,29.86,WSW,248,0.0,0.0,41,0.00,,,0.00,weatherlink.com 1.10,2013-10-08 12:21:00,
2013-10-08 08:36:00,74.8,53.0,29.86,West,270,3.0,4.0,46,0.00,,,0.00,weatherlink.com 1.10,2013-10-08 12:36:00,
2013-10-08 08:51:00,75.6,60.0,29.87,WSW,255,0.0,4.0,58,0.00,,,0.00,weatherlink.com 1.10,2013-10-08 12:51:00,
2013-10-08 09:06:00,75.7,62.0,29.87,WSW,250,0.0,0.0,62,0.00,,,0.00,weatherlink.com 1.10,2013-10-08 13:06:00,
2013-10-08 09:21:00,75.8,64.0,29.88,WSW,242,3.0,4.0,67,0.00,,,0.00,weatherlink.com 1.10,2013-10-08 13:21:00,
2013-10-08 09:36:00,76.2,64.0,29.89,West,276,0.0,1.0,66,0.00,,,0.00,weatherlink.com 1.10,2013-10-08 13:36:00,
2013-10-08 09:51:00,76.2,64.0,29.90,West,280,0.0,0.0,66,0.00,,,0.00,weatherlink.com 1.10,2013-10-08 13:51:00,
2013-10-08 10:06:00,76.2,65.0,29.90,West,279,0.0,0.0,68,0.00,,,0.00,weatherlink.com 1.10,2013-10-08 14:06:00,
2013-10-08 10:21:00,76.5,65.0,29.90,West,265,2.0,4.0,67,0.00,,,0.00,weatherlink.com 1.10,2013-10-08 14:21:00,
2013-10-08 10:36:00,76.8,67.0,29.90,WSW,251,3.0,4.0,71,0.00,,,0.00,weatherlink.com 1.10,2013-10-08 14:36:00,
2013-10-08 10:51:00,77.5,67.0,29.90,West,267,0.0,5.0,71,0.00,,,0.00,weatherlink.com 1.10,2013-10-08 14:51:00,
2013-10-08 11:06:00,77.8,69.0,29.90,NNW,332,0.0,7.0,73,0.00,,,0.00,weatherlink.com 1.10,2013-10-08 15:06:00,
2013-10-08 11:21:00,78.6,70.0,29.90,WNW,294,0.0,2.0,75,0.00,,,0.00,weatherlink.com 1.10,2013-10-08 15:21:00,
2013-10-08 11:36:00,78.7,71.0,29.91,NNW,336,0.0,5.0,76,0.00,,,0.00,weatherlink.com 1.10,2013-10-08 15:36:00,
2013-10-08 11:52:00,79.5,72.0,29.91,NNW,330,0.0,0.0,77,0.00,,,0.00,weatherlink.com 1.10,2013-10-08 15:52:00,
2013-10-08 12:07:00,79.0,72.0,29.90,West,267,0.0,1.0,78,0.00,,,0.00,weatherlink.com 1.10,2013-10-08 16:07:00,
2013-10-08 12:22:00,78.9,72.0,29.90,WSW,255,6.0,7.0,78,0.00,,,0.00,weatherlink.com 1.10,2013-10-08 16:22:00,
2013-10-08 12:37:00,79.4,72.0,29.90,West,269,5.0,9.0,78,0.00,,,0.00,weatherlink.com 1.10,2013-10-08 16:37:00,
2013-10-08 12:52:00,80.0,73.0,29.89,WNW,293,5.0,6.0,78,0.00,,,0.00,weatherlink.com 1.10,2013-10-08 16:52:00,
2013-10-08 13:07:00,80.5,73.0,29.89,NW,325,1.0,10.0,78,0.00,,,0.00,weatherlink.com 1.10,2013-10-08 17:07:00,
2013-10-08 13:22:00,81.3,73.0,29.88,West,272,0.0,8.0,77,0.00,,,0.00,weatherlink.com 1.10,2013-10-08 17:22:00,
2013-10-08 13:37:00,81.6,74.0,29.88,NE,49,0.0,10.0,77,0.00,,,0.00,weatherlink.com 1.10,2013-10-08 17:37:00,
2013-10-08 13:52:00,83.0,74.0,29.87,NNE,33,0.0,4.0,75,0.00,,,0.00,weatherlink.com 1.10,2013-10-08 17:52:00,
2013-10-08 14:07:00,83.3,75.0,29.87,NNW,328,1.0,7.0,75,0.00,,,0.00,weatherlink.com 1.10,2013-10-08 18:07:00,
2013-10-08 14:22:00,82.6,74.0,29.86,NNW,333,0.0,3.0,74,0.00,,,0.00,weatherlink.com 1.10,2013-10-08 18:22:00,
2013-10-08 14:37:00,82.4,74.0,29.86,NNW,341,2.0,5.0,76,0.00,,,0.00,weatherlink.com 1.10,2013-10-08 18:37:00,
2013-10-08 14:52:00,83.0,74.0,29.86,NNW,330,0.0,8.0,75,0.00,,,0.00,weatherlink.com 1.10,2013-10-08 18:52:00,
2013-10-08 15:07:00,83.3,73.0,29.86,NW,325,3.0,6.0,72,0.00,,,0.00,weatherlink.com 1.10,2013-10-08 19:07:00,
2013-10-08 15:22:00,83.6,74.0,29.87,NNW,328,0.0,5.0,72,0.00,,,0.00,weatherlink.com 1.10,2013-10-08 19:22:00,
2013-10-08 15:37:00,83.4,74.0,29.87,North,360,1.0,6.0,73,0.00,,,0.00,weatherlink.com 1.10,2013-10-08 19:37:00,
2013-10-08 15:52:00,83.0,74.0,29.87,North,355,2.0,5.0,74,0.00,,,0.00,weatherlink.com 1.10,2013-10-08 19:52:00,
2013-10-08 16:07:00,81.9,73.0,29.88,NNE,32,2.0,6.0,75,0.00,,,0.00,weatherlink.com 1.10,2013-10-08 20:07:00,
2013-10-08 16:22:00,80.8,73.0,29.88,NNW,342,0.0,3.0,77,0.00,,,0.00,weatherlink.com 1.10,2013-10-08 20:22:00,
2013-10-08 16:37:00,80.6,73.0,29.89,North,5,2.0,3.0,77,0.00,,,0.00,weatherlink.com 1.10,2013-10-08 20:37:00,
2013-10-08 16:52:00,80.0,73.0,29.89,North,5,0.0,5.0,78,0.00,,,0.00,weatherlink.com 1.10,2013-10-08 20:52:00,
2013-10-08 17:07:00,78.6,71.0,29.90,North,9,3.0,5.0,78,0.00,,,0.00,weatherlink.com 1.10,2013-10-08 21:07:00,
2013-10-08 17:22:00,77.1,70.0,29.91,NNE,15,1.0,7.0,78,0.00,,,0.00,weatherlink.com 1.10,2013-10-08 21:22:00,
2013-10-08 17:37:00,74.6,63.0,29.91,NNE,13,0.0,1.0,67,0.00,,,0.00,weatherlink.com 1.10,2013-10-08 21:37:00,
2013-10-08 17:52:00,73.8,56.0,29.92,North,5,0.0,0.0,54,0.00,,,0.00,weatherlink.com 1.10,2013-10-08 21:52:00,
2013-10-08 18:07:00,73.6,53.0,29.91,NNE,30,0.0,1.0,48,0.00,,,0.00,weatherlink.com 1.10,2013-10-08 22:07:00,
2013-10-08 18:22:00,73.3,49.0,29.91,NNE,16,0.0,0.0,43,0.00,,,0.00,weatherlink.com 1.10,2013-10-08 22:22:00,
2013-10-08 18:37:00,73.2,47.0,29.91,North,9,0.0,1.0,39,0.00,,,0.00,weatherlink.com 1.10,2013-10-08 22:37:00,
2013-10-08 18:52:00,73.1,46.0,29.91,North,5,0.0,3.0,38,0.00,,,0.00,weatherlink.com 1.10,2013-10-08 22:52:00,
2013-10-08 19:07:00,72.9,46.0,29.92,North,360,0.0,2.0,38,0.00,,,0.00,weatherlink.com 1.10,2013-10-08 23:07:00,
2013-10-08 19:22:00,72.8,46.0,29.92,NNE,21,0.0,3.0,38,0.00,,,0.00,weatherlink.com 1.10,2013-10-08 23:22:00,
2013-10-08 19:37:00,72.7,45.0,29.93,North,9,0.0,1.0,37,0.00,,,0.00,weatherlink.com 1.10,2013-10-08 23:37:00,
2013-10-08 19:52:00,72.6,45.0,29.93,NNE,22,0.0,0.0,37,0.00,,,0.00,weatherlink.com 1.10,2013-10-08 23:52:00,
2013-10-08 20:07:00,72.4,45.0,29.93,NNW,329,0.0,0.0,37,0.00,,,0.00,weatherlink.com 1.10,2013-10-09 00:07:00,
2013-10-08 20:22:00,72.2,45.0,29.93,NNE,13,0.0,3.0,38,0.00,,,0.00,weatherlink.com 1.10,2013-10-09 00:22:00,
2013-10-08 20:37:00,71.9,45.0,29.94,North,5,0.0,1.0,38,0.00,,,0.00,weatherlink.com 1.10,2013-10-09 00:37:00,
2013-10-08 20:52:00,71.9,45.0,29.95,North,360,0.0,1.0,38,0.00,,,0.00,weatherlink.com 1.10,2013-10-09 00:52:00,
2013-10-08 21:07:00,71.9,46.0,29.95,North,10,0.0,2.0,39,0.00,,,0.00,weatherlink.com 1.10,2013-10-09 01:07:00,
2013-10-08 21:22:00,71.7,45.0,29.96,NNE,19,0.0,0.0,39,0.00,,,0.00,weatherlink.com 1.10,2013-10-09 01:22:00,
2013-10-08 21:37:00,71.7,46.0,29.96,NNE,20,0.0,0.0,40,0.00,,,0.00,weatherlink.com 1.10,2013-10-09 01:37:00,
2013-10-08 21:52:00,71.6,47.0,29.96,NNE,14,0.0,1.0,41,0.00,,,0.00,weatherlink.com 1.10,2013-10-09 01:52:00,
2013-10-08 22:07:00,71.5,47.0,29.97,NNW,329,0.0,0.0,42,0.00,,,0.00,weatherlink.com 1.10,2013-10-09 02:07:00,
2013-10-08 22:22:00,71.5,47.0,29.97,North,5,0.0,1.0,42,0.00,,,0.00,weatherlink.com 1.10,2013-10-09 02:22:00,
2013-10-08 22:37:00,71.5,48.0,29.98,North,360,0.0,1.0,43,0.00,,,0.00,weatherlink.com 1.10,2013-10-09 02:37:00,
2013-10-08 22:52:00,71.4,48.0,29.98,North,5,0.0,1.0,44,0.00,,,0.00,weatherlink.com 1.10,2013-10-09 02:52:00,
2013-10-08 23:07:00,71.4,49.0,29.98,North,360,0.0,1.0,46,0.00,,,0.00,weatherlink.com 1.10,2013-10-09 03:07:00,
2013-10-08 23:22:00,71.3,50.0,29.99,ENE,62,0.0,1.0,47,0.00,,,0.00,weatherlink.com 1.10,2013-10-09 03:22:00,
2013-10-08 23:37:00,71.4,51.0,29.99,North,11,0.0,1.0,48,0.00,,,0.00,weatherlink.com 1.10,2013-10-09 03:37:00,
2013-10-08 23:52:00,71.4,52.0,29.98,NNE,31,0.0,2.0,50,0.00,,,0.00,weatherlink.com 1.10,2013-10-09 03:52:00,